Weather History for KAJG - October, 2013

Change the Weather History Date:

Saturday, October 26, 2013

  Actual Average (KLWV) Record (KLWV)
Temperature  
Mean Temperature 48 °F 54 °F  
Max Temperature 62 °F 66 °F 82 °F (2000)
Min Temperature 33 °F 43 °F 29 °F (2013)
Degree Days  
Heating Degree Days 18 11  
Month to date heating degree days 198  
Since 1 July heating degree days 237  
Cooling Degree Days 0 0  
Month to date cooling degree days 31  
Year to date cooling degree days 1385  
Moisture  
Dew Point 34 °F    
Average Humidity 54    
Maximum Humidity 87    
Minimum Humidity 37    
Precipitation  
Precipitation 0.00 in 0.12 in 1.51 in (1977)
Month to date precipitation 3.52  
Year to date precipitation 36.06  
Sea Level Pressure  
Sea Level Pressure 30.08 in    
Wind  
Wind Speed 11 mph (SW)    
Max Wind Speed 21 mph    
Max Gust Speed 26 mph    
Visibility 10 miles    
Events      
T = Trace of Precipitation, MM = Missing Value Source: NWS Daily Summary

Daily Weather History Graph

Daily Weather History Graph

Search for Another Location

Airport or City:

Trip Planner

Search our weather history database for the weather conditions in past years. The results will help you decide how hot, cold, wet, or windy it might be!

Date:

Astronomy

Oct. 26, 2013 Rise Set
Actual Time 7:11 AM CDT 5:57 PM CDT
Civil Twilight 6:44 AM CDT 6:24 PM CDT
Nautical Twilight 6:13 AM CDT 6:55 PM CDT
Astronomical Twilight 5:42 AM CDT 7:26 PM CDT
Moon No Moon Rise 1:26 PM CDT (10/26)
Length of Visible Light 11h 40m
Length of Day
10h 46m
Waning Gibbous, 53% of the Moon is Illuminated
Oct 26
Waning Gibbous
Oct 26
Last Quarter
Nov 3
New
Nov 9
First Quarter
Nov 17
Full

Hourly Weather History & Observations

Time (CDT) Temp. Windchill Dew Point Humidity Pressure Visibility Wind Dir Wind Speed Gust Speed Precip Events Conditions
12:35 AM 35.6 °F 30.7 °F 28.4 °F 75% 30.27 in 10.0 mi SSW 5.8 mph - N/A   Clear
12:55 AM 35.6 °F 30.7 °F 28.4 °F 75% 30.26 in 10.0 mi South 5.8 mph - N/A   Clear
4:15 AM 33.8 °F 27.0 °F 30.2 °F 87% 30.20 in 10.0 mi SSW 8.1 mph - N/A   Clear
4:35 AM 35.6 °F 29.2 °F 30.2 °F 81% 30.20 in 10.0 mi SSW 8.1 mph - N/A   Clear
4:55 AM 35.6 °F 30.7 °F 30.2 °F 81% 30.20 in 10.0 mi SSW 5.8 mph - N/A   Clear
5:35 AM 35.6 °F 29.2 °F 30.2 °F 81% 30.19 in 10.0 mi SSW 8.1 mph - N/A   Clear
5:55 AM 37.4 °F 32.1 °F 30.2 °F 75% 30.19 in 10.0 mi SSW 6.9 mph - N/A   Mostly Cloudy
6:35 AM 39.2 °F 33.6 °F 32.0 °F 75% 30.18 in 10.0 mi SSW 8.1 mph - N/A   Overcast
6:55 AM 41.0 °F 34.3 °F 32.0 °F 70% 30.17 in 10.0 mi SSW 11.5 mph 16.1 mph N/A   Overcast
7:15 AM 41.0 °F 34.7 °F 32.0 °F 70% 30.16 in 10.0 mi SSW 10.4 mph - N/A   Overcast
7:35 AM 42.8 °F 36.6 °F 32.0 °F 66% 30.15 in 10.0 mi SSW 11.5 mph - N/A   Overcast
9:55 AM 46.4 °F 39.8 °F 32.0 °F 57% 30.10 in 10.0 mi SW 16.1 mph 23.0 mph N/A   Overcast
10:15 AM 46.4 °F 39.0 °F 32.0 °F 57% 30.09 in 10.0 mi SW 19.6 mph 26.5 mph N/A   Mostly Cloudy
10:35 AM 50.0 °F - 32.0 °F 50% 30.08 in 10.0 mi SW 16.1 mph 21.9 mph N/A   Scattered Clouds
10:55 AM 51.8 °F - 32.0 °F 47% 30.07 in 10.0 mi SW 13.8 mph - N/A   Scattered Clouds
11:15 AM 53.6 °F - 32.0 °F 44% 30.06 in 10.0 mi SW 18.4 mph 24.2 mph N/A   Clear
11:35 AM 55.4 °F - 32.0 °F 41% 30.06 in 10.0 mi SW 17.3 mph 25.3 mph N/A   Clear
11:55 AM 55.4 °F - 33.8 °F 44% 30.05 in 10.0 mi WSW 16.1 mph 20.7 mph N/A   Clear
12:15 PM 59.0 °F - 33.8 °F 39% 30.05 in 10.0 mi WSW 17.3 mph 25.3 mph N/A   Clear
12:35 PM 59.0 °F - 33.8 °F 39% 30.04 in 10.0 mi WSW 17.3 mph 24.2 mph N/A   Clear
1:15 PM 60.8 °F - 35.6 °F 39% 30.02 in 10.0 mi WSW 17.3 mph 23.0 mph N/A   Clear
1:35 PM 60.8 °F - 35.6 °F 39% 30.00 in 10.0 mi WSW 18.4 mph 23.0 mph N/A   Clear
1:55 PM 62.6 °F - 35.6 °F 37% 29.99 in 10.0 mi WSW 20.7 mph 25.3 mph N/A   Clear
2:15 PM 62.6 °F - 35.6 °F 37% 29.98 in 10.0 mi SW 15.0 mph 24.2 mph N/A   Clear
2:35 PM 62.6 °F - 37.4 °F 39% 29.97 in 10.0 mi SSW 17.3 mph 23.0 mph N/A   Clear
2:55 PM 62.6 °F - 37.4 °F 39% 29.97 in 10.0 mi SW 17.3 mph 23.0 mph N/A   Clear
3:15 PM 62.6 °F - 37.4 °F 39% 29.97 in 10.0 mi WSW 19.6 mph - N/A   Clear
3:35 PM 62.6 °F - 37.4 °F 39% 29.98 in 10.0 mi SW 16.1 mph 24.2 mph N/A   Clear
3:55 PM 62.6 °F - 37.4 °F 39% 29.98 in 10.0 mi SW 18.4 mph 23.0 mph N/A   Clear
4:15 PM 62.6 °F - 39.2 °F 42% 29.99 in 10.0 mi WSW 17.3 mph - N/A   Mostly Cloudy
4:35 PM 62.6 °F - 39.2 °F 42% 29.99 in 10.0 mi WSW 12.7 mph 18.4 mph N/A   Mostly Cloudy
4:55 PM 62.6 °F - 39.2 °F 42% 29.99 in 10.0 mi WSW 12.7 mph 16.1 mph N/A   Scattered Clouds
5:15 PM 62.6 °F - 41.0 °F 45% 30.00 in 10.0 mi WSW 11.5 mph - N/A   Scattered Clouds
5:35 PM 60.8 °F - 41.0 °F 48% 30.01 in 10.0 mi WNW 11.5 mph - N/A   Scattered Clouds